Regional Weather Roundup
Issued by NWS Cleveland, OH

Home | Current Version | Previous Version | Graphics & Text | Print | Product List | Glossary On
Versions: 1 2 3 4 5 6 7 8 9 10 11 12 13 14 15 16 17 18 19 20 21 22 23 24 25 26 27 28 29 30 31 32 33 34 35 36 37 38 39 40 41 42 43 44 45 46 47 48 49 50
000
ASUS41 KCLE 292210
RWRCLE
OHIO REGIONAL WEATHER ROUNDUP
NATIONAL WEATHER SERVICE WILMINGTON, OH
600 PM EDT TUE JUL 29 2014

NOTE: "FAIR" INDICATES FEW OR NO CLOUDS BELOW 12,000 FEET WITH NO
SIGNIFICANT WEATHER AND/OR OBSTRUCTIONS TO VISIBILITY.

OHZ001>008-015>018-024>027-034-035-043-044-292300-
   NORTHWEST OHIO

CITY           SKY/WX    TMP DP  RH WIND       PRES   REMARKS
DEFIANCE       TSTM      69  55  60 MISG      30.01R
FINDLAY        PTSUNNY   73  53  49 W12       30.00F
TOLEDO EXPRESS MOSUNNY   73  53  49 SW13      29.98S
TOLEDO METCALF PTSUNNY   73  52  47 SW15      29.98F
LIMA           CLOUDY    72  55  55 SW9       30.02F
$$

OHZ009>014-019>023-028>033-038-089-292300-
   NORTHEAST OHIO

CITY           SKY/WX    TMP DP  RH WIND       PRES   REMARKS
CLE-HOPKINS    PTSUNNY   70  52  52 W8        30.01F
CLE-LAKEFRONT  MOSUNNY   68  53  58 W9        29.98S
CUY CO. ARPT   PTSUNNY   68  48  49 NW9       30.01S
LORAIN-ELYRIA  CLOUDY    71  53  52 W7        30.01S
ASHTABULA      SUNNY     67  52  58 W6        30.01R
AKRON-CANTON   PTSUNNY   68  49  50 W9        30.02R
WOOSTER        MOSUNNY   69  51  52 W8        30.03R
MANSFIELD      PTSUNNY   68  50  52 W6        30.03S
YOUNGSTOWN     PTSUNNY   67  49  52 W6        30.00S
$$

OHZ042-051>053-060>062-070>072-077>081-292300-
  SOUTHWEST OHIO

CITY           SKY/WX    TMP DP  RH WIND       PRES   REMARKS
CINC-COVINGTON MOSUNNY   73  51  46 NW6       30.06F
CINC-LUNKEN    PTSUNNY   73  53  49 NW9       30.05F
HAMILTON       PTSUNNY   70  55  59 VRB5      30.06F
DAYTON         PTSUNNY   73  53  49 W5        30.05F
WRIGHT-PAT AFB MOSUNNY   71  54  54 W6        30.04F
DAYTON GENERAL CLOUDY    70  53  54 W6        30.04F
WILMINGTON     PTSUNNY   70  50  49 W9        30.05F
$$

OHZ036-037-039>041-045>050-054>059-063>069-073>076-082>088-292300-
  CENTRAL AND SOUTHEAST OHIO

CITY           SKY/WX    TMP DP  RH WIND       PRES   REMARKS
COLUMBUS       MOSUNNY   72  49  44 CALM      30.03S
OSU AIRPORT    CLOUDY    69  51  52 W6        30.04S
BOLTON FIELD   PTSUNNY   68  52  56 W3        30.05S
RICKENBACK AFB SUNNY     72  44  37 W7        30.03S
NEWARK         PTSUNNY   68  48  48 NW6       30.04R
MARION         CLOUDY    68  52  56 W8        30.03S
LANCASTER      MOSUNNY   69  51  52 W7        30.04S
ZANESVILLE     MOSUNNY   70  49  47 VRB7      30.03S
NEW PHILLY     SUNNY     67  51  56 VRB3      30.03S
$$


USA.gov is the U.S. government's official web portal to all federal, state and local government web resources and services.